sat.trackr.live / text

‹ back to catalog

STARLINK-11613 [DTC]

NORAD 63136 · 2025-043E

PAYLOAD ACTIVE UNKNOWN

§ Identity

Operator
Country
US
Launch date
2025-03-03
Launch site
AFETR
Launch vehicle
Mass (kg)
RCS (m²)

Purposes: comms

External: N2YO · Heavens-Above · Gunter

§ Orbital elements

Epoch: 2026-05-25T03:35:56.399712Z

Period
91.67 min
Inclination
42.9992°
Eccentricity
0.0004113
Mean motion
15.70825977 rev/d
Perigee alt
353.8 km
Apogee alt
359.3 km
Semi-major
6,734.7 km
B*
1.2384e-3
RAAN
150.1686°
Arg perigee
287.5615°
Mean anomaly
72.4803°
Rev number
7,149

§ Raw data

STARLINK-11613 [DTC]1 63136U 25043E   26145.14995833  .00161525  00000+0  12384-2 0  99922 63136  42.9992 150.1686 0004113 287.5615  72.4803 15.70825977 71492

JSON: /api/v1/satellites/63136 · /tle

For live sub-satellite position, see the globe view (requires WebGL).

§ Visibility from observer

Set your observer location to see the next 7 days of passes ≥ 10°. The values pass through the URL so the page stays shareable.

No JS? Fill the form by hand. The geolocation button needs JavaScript.